sat.trackr.live / text

‹ back to catalog

STARLINK-34016

NORAD 64016 · 2025-101Y

PAYLOAD ACTIVE UNKNOWN

§ Identity

Operator
Country
US
Launch date
2025-05-14
Launch site
AFETR
Launch vehicle
Mass (kg)
RCS (m²)

Purposes: comms

External: N2YO · Heavens-Above · Gunter

§ Orbital elements

Epoch: 2026-09-20T21:41:20.075712Z

Period
94.27 min
Inclination
43.0016°
Eccentricity
0.0001508
Mean motion
15.27587214 rev/d
Perigee alt
482.0 km
Apogee alt
484.1 km
Semi-major
6,861.2 km
B*
3.1106e-4
RAAN
335.2374°
Arg perigee
269.5011°
Mean anomaly
90.5668°
Rev number
7,691

§ Raw data

STARLINK-340161 64016U 25101Y   26263.90370458  .00008309  00000+0  31106-3 0  99942 64016  43.0016 335.2374 0001508 269.5011  90.5668 15.27587214 76917

JSON: /api/v1/satellites/64016 · /tle

For live sub-satellite position, see the globe view (requires WebGL).

§ Visibility from observer

Set your observer location to see the next 7 days of passes ≥ 10°. The values pass through the URL so the page stays shareable.

No JS? Fill the form by hand. The geolocation button needs JavaScript.